sat.trackr.live / text

‹ back to catalog

STARLINK-11095 [DTC]

NORAD 59720 · 2024-088N

PAYLOAD ACTIVE UNKNOWN

§ Identity

Operator
Country
US
Launch date
2024-05-10
Launch site
AFWTR
Launch vehicle
Mass (kg)
RCS (m²)

Purposes: comms

External: N2YO · Heavens-Above · Gunter

§ Orbital elements

Epoch: 2026-09-21T21:43:13.129248Z

Period
91.74 min
Inclination
53.1603°
Eccentricity
0.0000963
Mean motion
15.69709496 rev/d
Perigee alt
359.1 km
Apogee alt
360.4 km
Semi-major
6,737.9 km
B*
5.0937e-6
RAAN
78.7345°
Arg perigee
75.4438°
Mean anomaly
284.6687°
Rev number
13,709

§ Raw data

STARLINK-11095 [DTC]1 59720U 24088N   26264.90501307  .00000029  00000+0  50937-5 0  99992 59720  53.1603  78.7345 0000963  75.4438 284.6687 15.69709496137093

JSON: /api/v1/satellites/59720 · /tle

For live sub-satellite position, see the globe view (requires WebGL).

§ Visibility from observer

Set your observer location to see the next 7 days of passes ≥ 10°. The values pass through the URL so the page stays shareable.

No JS? Fill the form by hand. The geolocation button needs JavaScript.